Weather reports worldwide

Advertisment
Greifswald, Germany (10184): temperature & dewpoint: 19.03.2019 07:00:00 - 25.03.2019 07:00:00 (CET)Greifswald, Germany (10184): temperature 5cm & temperature -5cm: 19.03.2019 07:00:00 - 25.03.2019 07:00:00 (CET)Greifswald, Germany (10184): temperature -20cm & temperature -100cm: 19.03.2019 07:00:00 - 25.03.2019 07:00:00 (CET)Greifswald, Germany (10184): wind speed & gusts: 19.03.2019 07:00:00 - 25.03.2019 07:00:00 (CET)Greifswald, Germany (10184): wind direction: 19.03.2019 07:00:00 - 25.03.2019 07:00:00 (CET)Greifswald, Germany (10184): reduced air pressure: 19.03.2019 07:00:00 - 25.03.2019 07:00:00 (CET)Greifswald, Germany (10184): visibility: 19.03.2019 07:00:00 - 25.03.2019 07:00:00 (CET)Greifswald, Germany (10184): sunshine duration: 19.03.2019 07:00:00 - 25.03.2019 07:00:00 (CET)Greifswald, Germany (10184): precipitation: 19.03.2019 07:00:00 - 25.03.2019 07:00:00 (CET)
Date & Time tt [°C] td [°C] tt 5cm [°C] tt -5cm [°C] tt -20cm [°C] tt -100cm [°C] ff [km/h] ff [kn] fx [km/h] fx [kn] dd ppp [hPa] vv [km] sd [min] rr [mm]
25.03.2019 07:00:00 3,2 1,8 2,6 3,5 5,3 6,8 18 10 32 18 SW 1008,9 6 0 0,5
25.03.2019 06:00:00 2,5 1,2 1,8 3,4 5,4 6,8 12 7 34 18 SSW 1009,3 7 0 1,3
25.03.2019 05:00:00 4,0 0,1 3,2 3,4 5,6 6,8 14 8 29 16 SSW 1010,2 19 0 0,0
25.03.2019 04:00:00 3,7 0,0 2,9 3,2 5,8 6,8 12 6 28 15 SSW 1011,5 23 0 0,0
25.03.2019 03:00:00 3,6 -0,3 2,2 3,3 6,1 6,8 10 5 24 13 SW 1012,8 27 0 0,0
25.03.2019 02:00:00 3,9 -0,4 2,3 3,8 6,3 6,8 10 5 21 11 SW 1014,1 27 0 0,0
25.03.2019 01:00:00 4,3 -0,1 3,5 4,2 6,5 6,8 9 5 20 11 SW 1015,3 28 0 0,0
25.03.2019 00:00:00 4,1 0,0 2,9 4,2 6,8 6,8 10 6 21 11 WSW 1016,4 25 0 0,0
24.03.2019 23:00:00 4,0 -0,1 2,4 4,4 7,2 6,8 6 4 13 7 SW 1017,5 22 0 0,0
24.03.2019 22:00:00 4,2 -0,3 2,5 4,9 7,6 6,7 7 4 14 8 SW 1018,3 22 0 0,0
24.03.2019 21:00:00 3,7 -0,1 -0,2 5,6 8,1 6,7 6 3 9 5 WSW 1019,2 23 0 0,0
24.03.2019 20:00:00 5,2 0,1 1,3 6,6 8,5 6,7 5 3 9 5 SSW 1020,0 24 0 0,0
24.03.2019 19:00:00 6,3 -0,7 3,6 7,9 8,8 6,7 5 3 21 11 WSW 1020,7 29 0 0,0
24.03.2019 18:00:00 7,7 0,2 6,2 9,4 8,9 6,7 15 8 23 12 W 1021,3 32 48 0,0
24.03.2019 17:00:00 8,9 0,9 9,7 11,0 8,8 6,7 14 8 27 15 W 1021,7 30 49 0,0
24.03.2019 16:00:00 9,0 0,0 9,9 11,9 8,4 6,7 14 7 25 14 W 1022,6 25 43 0,0
24.03.2019 15:00:00 9,1 0,7 11,9 12,4 7,8 6,7 12 6 24 13 WSW 1023,5 25 50 0,0
24.03.2019 14:00:00 8,6 1,2 11,5 11,1 7,3 6,7 11 6 22 12 WNW 1024,2 20 33 0,0
24.03.2019 13:00:00 7,9 1,5 9,4 9,9 6,8 6,7 13 7 21 11 W 1025,0 18 0 0,0
24.03.2019 12:00:00 7,3 2,2 8,2 9,0 6,4 6,7 12 7 19 10 WSW 1026,2 20 0 0,0
24.03.2019 11:00:00 6,8 2,4 8,3 7,9 5,9 6,7 8 4 16 9 W 1026,5 19 0 0,0
24.03.2019 10:00:00 6,1 2,9 7,3 6,8 5,6 6,7 11 6 20 11 WNW 1027,2 18 23 0,0
24.03.2019 09:00:00 4,7 2,2 5,0 4,9 5,5 6,7 9 5 13 7 W 1027,7 16 0 0,0
24.03.2019 08:00:00 3,7 1,5 3,5 3,8 5,6 6,6 10 5 15 8 W 1028,0 16 0 0,0
24.03.2019 07:00:00 3,1 1,1 2,2 3,2 5,8 6,6 9 5 14 7 W 1028,3 16 0 0,0
24.03.2019 06:00:00 3,0 0,9 1,1 3,3 6,1 6,6 8 4 13 7 WSW 1028,5 14 0 0,0
24.03.2019 05:00:00 2,6 0,9 0,6 3,5 6,3 6,6 5 3 11 6 W 1028,5 20 0 0,0
24.03.2019 04:00:00 3,5 1,0 1,3 3,9 6,6 6,6 9 5 13 7 W 1028,8 18 0 0,0
24.03.2019 03:00:00 3,8 1,1 2,2 4,3 6,8 6,6 9 5 11 6 W 1028,8 14 0 0,0
24.03.2019 02:00:00 4,4 1,2 2,2 4,6 7,1 6,6 6 4 13 7 W 1028,8 26 0 0,0
24.03.2019 01:00:00 4,6 1,5 3,3 4,9 7,4 6,6 10 5 14 8 W 1028,9 23 0 0,0
24.03.2019 00:00:00 5,0 1,8 3,4 5,3 7,8 6,6 11 6 16 9 WNW 1028,8 21 0 0,0
23.03.2019 23:00:00 5,2 2,3 3,2 5,7 8,2 6,6 10 5 17 9 W 1028,7 20 0 0,0
23.03.2019 22:00:00 5,9 2,5 4,4 6,3 8,6 6,6 11 6 18 10 W 1028,7 18 0 0,0
23.03.2019 21:00:00 6,8 2,7 5,2 7,1 9,0 6,6 13 7 19 10 W 1028,5 17 0 0,0
23.03.2019 20:00:00 7,9 3,1 6,2 7,9 9,4 6,6 10 6 19 11 W 1028,2 17 0 0,0
23.03.2019 19:00:00 8,5 3,4 6,7 9,0 9,7 6,6 13 7 27 14 W 1027,9 15 0 0,0
23.03.2019 18:00:00 9,6 3,9 8,4 10,5 9,9 6,5 16 9 31 17 WNW 1027,6 14 50 0,0
23.03.2019 17:00:00 10,5 4,6 10,3 12,0 9,8 6,5 20 11 35 19 WNW 1027,2 13 53 0,0
23.03.2019 16:00:00 11,6 4,0 12,0 12,9 9,6 6,5 23 12 36 20 W 1026,8 13 47 0,0
23.03.2019 15:00:00 11,4 6,5 12,8 13,0 9,2 6,5 17 9 37 20 W 1026,6 7 22 0,0
23.03.2019 14:00:00 10,4 6,5 11,4 12,9 8,7 6,5 18 10 31 17 W 1026,7 7 1 0,0
23.03.2019 13:00:00 10,3 6,3 11,3 13,1 8,1 6,5 16 8 30 16 W 1026,4 6 43 0,0
23.03.2019 12:00:00 10,2 5,9 12,7 11,4 7,5 6,5 16 9 27 14 W 1026,0 5 40 0,0
23.03.2019 11:00:00 7,9 5,5 9,8 9,0 7,3 6,5 15 8 26 14 W 1025,9 3,9 1 0,0
23.03.2019 10:00:00 7,6 5,6 8,1 8,3 7,0 6,5 20 11 29 16 NW 1025,7 2,5 0 0,0
23.03.2019 09:00:00 7,8 6,6 7,7 7,4 6,9 6,5 16 9 29 16 W 1025,1 2,1 0 0,0
23.03.2019 08:00:00 7,2 6,9 7,3 6,7 6,8 6,5 11 6 20 11 SW 1024,5 1,5 0 0,0
23.03.2019 07:00:00 6,5 6,4 6,3 5,9 6,9 6,4 8 4 16 9 SW 1024,9 0,4 0 0,0
23.03.2019 06:00:00 6,0 5,7 5,5 5,5 7,1 6,4 11 6 20 11 SSW 1024,6 0,6 0 0,0
23.03.2019 05:00:00 6,8 5,9 5,3 5,6 7,4 6,4 10 5 18 10 S 1024,7 2,7 0 0,0
23.03.2019 04:00:00 6,8 6,0 4,9 5,8 7,6 6,4 8 4 18 10 S 1025,1 2,9 0 0,0
23.03.2019 03:00:00 6,9 6,1 5,3 6,3 7,9 6,4 8 4 14 8 S 1025,7 3,7 0 0,0
23.03.2019 02:00:00 7,6 6,6 6,0 7,0 8,1 6,4 8 4 23 13 SSW 1026,1 4,2 0 0,0
23.03.2019 01:00:00 8,3 6,8 7,1 7,6 8,2 6,4 15 8 27 14 SSW 1026,9 5 0 0,0
23.03.2019 00:00:00 8,7 6,8 7,8 8,0 8,4 6,4 13 7 25 14 SSW 1027,6 5 0 0,0
22.03.2019 23:00:00 9,2 7,0 8,0 8,4 8,5 6,4 13 7 31 17 S 1028,1 6 0 0,0
22.03.2019 22:00:00 9,8 7,2 9,1 8,7 8,6 6,4 12 7 26 14 S 1028,8 8 0 0,0
22.03.2019 21:00:00 10,0 7,3 9,4 8,9 8,6 6,4 10 5 22 12 S 1029,4 11 0 0,0
22.03.2019 20:00:00 9,9 7,3 9,4 9,1 8,7 6,4 9 5 21 11 SSE 1029,8 13 0 0,0
22.03.2019 19:00:00 9,6 7,4 9,2 9,3 8,8 6,3 6 4 18 10 SSE 1030,0 12 0 0,0
22.03.2019 18:00:00 9,7 7,7 9,4 9,7 8,8 6,3 7 4 18 10 SE 1030,4 13 0 0,0
22.03.2019 17:00:00 9,9 7,7 9,8 9,9 8,8 6,3 8 4 15 8 SSE 1030,9 12 0 0,0
22.03.2019 16:00:00 9,8 7,5 9,8 10,1 8,7 6,3 8 4 16 8 SSE 1031,7 12 0 0,0
22.03.2019 15:00:00 9,6 7,2 9,9 10,4 8,6 6,3 6 4 16 9 SSE 1032,3 12 0 0,0
22.03.2019 14:00:00 9,6 7,2 10,0 10,4 8,4 6,3 8 4 16 8 SSE 1032,8 14 0 0,0
22.03.2019 13:00:00 9,4 6,7 10,1 10,3 8,2 6,3 8 4 16 9 SSW 1033,3 15 0 0,0
22.03.2019 12:00:00 9,0 6,2 9,8 9,8 8,0 6,3 9 5 16 8 SW 1033,6 18 0 0,0
22.03.2019 11:00:00 8,6 6,0 9,1 9,2 7,9 6,3 9 5 16 9 WSW 1034,0 25 0 0,0
22.03.2019 10:00:00 7,7 5,9 8,0 8,4 7,8 6,3 7 4 14 8 SSW 1034,1 18 0 0,0
22.03.2019 09:00:00 7,5 5,7 7,6 8,1 7,8 6,3 4 2 9 5 SW 1034,0 15 0 0,0
22.03.2019 08:00:00 7,4 5,6 7,4 7,9 7,9 6,3 5 3 10 5 W 1033,9 14 0 0,0
22.03.2019 07:00:00 7,1 6,3 6,9 7,7 8,0 6,3 6 3 10 6 W 1033,6 6 0 0,0
22.03.2019 06:00:00 7,0 6,3 6,8 7,9 8,1 6,3 5 3 15 8 W 1033,2 4,6 0 0,0
22.03.2019 05:00:00 7,1 6,1 6,8 8,1 8,2 6,3 12 6 22 12 NNW 1033,3 10 0 0,0
22.03.2019 04:00:00 8,0 7,2 7,8 8,4 8,3 6,3 13 7 28 15 NNW 1032,9 3,0 0 0,0
22.03.2019 03:00:00 9,4 7,5 9,0 8,6 8,3 6,3 11 6 27 14 WNW 1032,2 5 0 0,0
22.03.2019 02:00:00 9,7 7,7 9,3 8,7 8,4 6,2 15 8 30 16 W 1031,4 5 0 0,0
22.03.2019 01:00:00 9,9 7,7 9,4 8,7 8,5 6,2 14 8 29 16 W 1031,8 4,3 0 0,0
22.03.2019 00:00:00 10,0 7,6 9,4 8,8 8,6 6,2 15 8 29 16 W 1031,9 4,5 0 0,0
21.03.2019 23:00:00 10,3 7,6 9,7 9,0 8,7 6,2 19 10 32 18 W 1031,8 4,5 0 0,0
21.03.2019 22:00:00 10,5 7,5 10,1 9,2 8,8 6,2 18 10 27 15 W 1031,8 4,9 0 0,0
21.03.2019 21:00:00 10,7 7,5 10,2 9,4 8,9 6,2 18 10 32 17 W 1031,9 5 0 0,0
21.03.2019 20:00:00 10,7 7,5 10,2 9,7 9,1 6,2 20 11 31 17 WSW 1031,5 6 0 0,0
21.03.2019 19:00:00 10,7 7,3 10,2 10,0 9,2 6,2 16 9 30 16 WSW 1031,3 7 0 0,0
21.03.2019 18:00:00 10,9 7,1 10,5 10,7 9,3 6,2 21 11 35 19 WSW 1030,9 8 0 0,0
21.03.2019 17:00:00 11,9 7,8 11,6 11,5 9,3 6,2 20 11 32 18 W 1030,9 5 0 0,0
21.03.2019 16:00:00 12,2 7,6 12,1 12,5 9,1 6,2 24 13 41 22 W 1030,8 7 0 0,0
21.03.2019 15:00:00 13,1 8,1 13,8 13,1 8,7 6,2 21 12 44 24 W 1031,0 7 21 0,0
21.03.2019 14:00:00 13,4 8,3 15,2 13,1 8,1 6,2 22 12 41 22 WSW 1030,8 8 24 0,0
21.03.2019 13:00:00 12,6 8,3 13,9 12,2 7,6 6,2 20 11 38 20 SW 1031,3 6 22 0,0
21.03.2019 12:00:00 11,5 8,0 12,8 10,4 7,2 6,2 16 9 35 19 SW 1031,7 4,7 2 0,0
21.03.2019 11:00:00 10,6 7,7 10,7 9,4 6,9 6,2 13 7 30 16 SW 1032,0 4,9 0 0,0
21.03.2019 10:00:00 10,4 7,4 10,7 8,7 6,7 6,2 19 10 35 19 WSW 1032,0 4,6 0 0,0
21.03.2019 09:00:00 9,9 7,3 10,0 8,3 6,5 6,2 14 8 25 13 SW 1031,6 3,6 0 0,0
21.03.2019 08:00:00 9,2 7,3 9,1 7,3 6,4 6,2 12 6 24 13 SW 1031,4 3,4 0 0,0
21.03.2019 07:00:00 8,6 6,8 8,1 6,7 6,3 6,3 10 5 19 11 SW 1031,1 4,2 0 0,0
21.03.2019 06:00:00 8,6 6,6 8,0 6,7 6,3 6,3 8 4 22 12 SW 1031,2 6 0 0,0
21.03.2019 05:00:00 8,6 6,6 8,1 6,6 6,3 6,3 11 6 24 13 WSW 1031,2 7 0 0,0
21.03.2019 04:00:00 8,4 6,5 7,8 6,6 6,4 6,3 11 6 21 12 WSW 1031,5 6 0 0,0
21.03.2019 03:00:00 8,0 6,2 7,3 6,7 6,4 6,3 9 5 17 9 WSW 1031,4 6 0 0,0
21.03.2019 02:00:00 8,3 6,2 7,7 6,9 6,4 6,3 13 7 23 13 W 1032,0 7 0 0,0
21.03.2019 01:00:00 8,6 6,4 8,0 6,9 6,4 6,3 15 8 25 14 W 1032,0 7 0 0,0
21.03.2019 00:00:00 8,8 6,7 8,1 6,9 6,4 6,3 12 6 21 11 W 1031,8 6 0 0,0
20.03.2019 23:00:00 8,8 7,1 7,8 6,8 6,4 6,3 13 7 21 12 W 1031,2 3,8 0 0,0
20.03.2019 22:00:00 8,7 7,2 7,4 7,1 6,4 6,3 14 8 24 13 W 1031,1 3,7 0 0,0
20.03.2019 21:00:00 8,8 7,4 8,1 7,2 6,3 6,3 16 9 24 13 W 1031,1 2,5 0 0,0
20.03.2019 20:00:00 8,9 7,6 8,1 7,3 6,3 6,3 13 7 31 17 W 1030,5 2,0 0 0,0
20.03.2019 19:00:00 9,0 7,5 8,2 7,3 6,2 6,3 16 8 29 15 WSW 1029,9 3,0 0 0,0
20.03.2019 18:00:00 9,3 6,8 8,5 7,5 6,2 6,3 18 10 33 18 WSW 1029,8 5 0 0,0
20.03.2019 17:00:00 9,6 6,4 9,1 7,7 6,0 6,3 14 8 32 17 WSW 1029,4 8 0 0,0
20.03.2019 16:00:00 9,7 6,0 9,4 7,9 5,8 6,3 19 10 40 22 WSW 1029,2 8 0 0,0
20.03.2019 15:00:00 10,0 4,6 9,9 8,0 5,6 6,3 16 9 34 19 SW 1029,0 10 0 0,0
20.03.2019 14:00:00 10,0 4,3 9,8 8,1 5,1 6,3 16 9 32 17 SW 1029,8 13 0 0,0
20.03.2019 13:00:00 9,9 4,1 10,1 8,2 4,6 6,3 11 6 32 17 SW 1030,8 14 0 0,0
20.03.2019 12:00:00 9,4 3,3 10,5 7,5 3,9 6,3 17 9 32 17 SW 1030,0 12 0 0,0
20.03.2019 11:00:00 7,9 2,4 8,5 5,6 3,3 6,3 16 8 27 14 SW 1030,1 11 0 0,0
20.03.2019 10:00:00 6,6 1,3 7,4 3,5 3,0 6,3 13 7 26 14 SSW 1030,2 21 2 0,0
20.03.2019 09:00:00 4,6 0,5 4,8 1,0 3,1 6,3 15 8 23 13 SSW 1030,1 33 2 0,0
20.03.2019 08:00:00 3,1 -0,6 2,6 0,9 3,2 6,3 12 6 23 12 SSW 1030,3 25 13 0,0
20.03.2019 07:00:00 1,4 -1,1 0,8 0,9 3,3 6,3 12 6 18 10 SSW 1030,0 25 0 0,0
20.03.2019 06:00:00 0,4 -1,5 -1,8 1,0 3,4 6,3 9 5 16 9 SSW 1029,9 20 0 0,0
20.03.2019 05:00:00 0,6 -1,8 -1,1 1,0 3,6 6,3 9 5 14 8 WSW 1030,1 23 0 0,0
20.03.2019 04:00:00 0,8 -2,2 -1,4 1,1 3,8 6,3 9 5 15 8 SSW 1029,7 25 0 0,0
20.03.2019 03:00:00 1,3 -2,2 -0,8 1,2 4,0 6,3 9 5 14 8 SSW 1029,9 25 0 0,0
20.03.2019 02:00:00 0,9 -1,9 -1,5 1,3 4,2 6,3 6 4 14 7 SSW 1029,9 20 0 0,0
20.03.2019 01:00:00 0,8 -1,8 -2,7 1,4 4,5 6,3 5 3 10 6 SW 1029,8 25 0 0,0
20.03.2019 00:00:00 1,2 -1,5 -2,4 1,5 4,9 6,3 5 3 10 5 SW 1029,6 25 0 0,0
19.03.2019 23:00:00 1,6 -1,3 -1,3 2,0 5,3 6,3 8 4 11 6 SW 1029,6 20 0 0,0
19.03.2019 22:00:00 2,1 -1,1 -2,1 2,7 5,7 6,3 5 3 14 7 WSW 1029,4 20 0 0,0
19.03.2019 21:00:00 3,5 -1,1 0,7 3,4 6,1 6,3 10 5 14 8 W 1028,8 25 0 0,0
19.03.2019 20:00:00 4,1 -0,9 -0,3 4,3 6,5 6,3 8 4 10 6 W 1027,9 30 0 0,0
19.03.2019 19:00:00 4,7 -0,9 0,9 5,4 6,9 6,3 7 4 14 7 W 1027,2 40 0 0,0
19.03.2019 18:00:00 5,5 -0,9 3,5 6,6 7,1 6,3 2 1 8 5 WNW 1026,7 35 7 0,0
19.03.2019 17:00:00 6,0 -2,0 4,5 7,5 7,3 6,3 7 4 15 8 N 1026,2 45 10 0,0
19.03.2019 16:00:00 6,1 -1,1 5,3 8,9 7,2 6,3 12 7 23 12 N 1025,7 40 4 0,0
19.03.2019 15:00:00 7,2 -0,2 8,4 10,8 6,9 6,3 13 7 22 12 NNW 1025,2 33 33 0,0
19.03.2019 14:00:00 6,8 1,4 7,4 10,5 6,4 6,3 17 9 27 15 NW 1024,9 27 25 0,0
19.03.2019 13:00:00 7,4 0,7 9,0 10,0 5,8 6,3 16 9 26 14 NW 1024,4 28 14 0,0
19.03.2019 12:00:00 6,9 1,5 8,8 10,0 5,1 6,3 15 8 26 14 NW 1023,8 28 28 0,0
19.03.2019 11:00:00 6,5 1,6 7,9 8,2 4,4 6,3 16 9 27 15 W 1023,2 21 43 0,0
19.03.2019 10:00:00 5,6 1,9 7,6 5,8 3,9 6,3 16 9 27 15 W 1022,5 18 22 0,0
19.03.2019 09:00:00 4,0 1,6 4,8 3,6 3,7 6,3 11 6 20 11 WSW 1021,9 16 0 0,0
19.03.2019 08:00:00 3,4 1,4 3,5 2,4 3,7 6,3 14 7 24 13 W 1021,1 15 0 0,0
19.03.2019 07:00:00 2,1 0,7 1,3 1,3 3,9 6,3 12 6 18 10 WSW 1020,2 13 0 0,0

tt = temperature
td = dewpoint
tt 5cm = temperature 5cm
tt -5cm = temperature -5cm
tt -20cm = temperature -20cm
tt -100cm = temperature -100cm
ff = wind speed
fx = gusts
dd = wind direction
ppp = reduced air pressure
vv = visibility
sd = sunshine duration
rr = precipitation

Next stations